Lid_Strength_Index
3 3 3 3 2 3 2 2 1 1 1 1 0 1 1 1 1 1 1 2 2 2
3 3 3 3 3 3 2 1 1 1 1 1 1 1 2 2 2 2 1 1 1 2
3 3 3 3 3 3 3 2 2 2 1 1 1 1 2 1 1 1 1 2 2 1
3 3 2 3 3 2 3 2 2 2 1 1 1 1 1 1 1 2 1 1 2 2
4 4 3 3 3 3 2 1 1 1 1 1 1 1 2 2 1 2 2 2 2 2
3 3 3 3 4 3 2 2 1 1 1 1 1 1 1 1 1 2 1 2 2 2
4 4 4 4 3 3 2 2 2 1 1 1 1 1 1 1 1 1 1 1 1 1
5 5 5 4 4 4 4 3 3 3 2 1 1 1 1 1 2 2 2 1 1 1
4 4 4 4 5 5 5 5 4 4 4 4 3 4 3 2 2 2 2 2 2 1
4 4 4 4 5 5 5 5 5 4 3 2 2 4 5 5 3 2 2 2 2 2
4 4 4 5 5 5 5 5 5 4 3 3 1 4 6 6 3 2 2 2 2 2
4 4 5 5 5 5 6 6 5 4 3 3 3 5 6 6 2 2 3 2 1 1
4 4 4 4 5 5 6 5 4 4 4 3 2 4 8 8 3 3 2 2 2 7
4 4 4 4 5 5 5 5 5 4 4 3 2 2 7 9 3 2 3 2 2 2